Regional Weather Roundup
Issued by NWS

Home | Current Version | Previous Version | Graphics & Text | Print | Product List | Glossary On
Versions: 1 2 3 4 5 6 7 8 9 10 11 12 13 14 15 16 17 18 19 20 21 22 23 24 25 26 27 28 29 30 31 32 33 34 35 36 37 38 39 40 41 42 43 44 45 46 47 48 49 50
000
ASUS43 KLMK 030202
RWRKY
KENTUCKY REGIONAL WEATHER ROUNDUP
NATIONAL WEATHER SERVICE LOUISVILLE KY
900 PM EST MON MAR 02 2015

NOTE "FAIR" INDICATES FEW OR NO CLOUDS BELOW 12,000 FEET
WITH NO SIGNIFICANT WEATHER AND/OR OBSTRUCTIONS TO VISIBILITY.

KYZ001>023-026-027-061>063-070>075-030300-
WESTERN AND SOUTH CENTRAL KENTUCKY

CITY           SKY/WX    TMP DP  RH WIND       PRES   REMARKS
PADUCAH        MOCLDY    36  23  59 E9        30.30F WCI  29
HENDERSON      PTCLDY    32  21  64 N3        30.35S
OWENSBORO      MOCLDY    35  21  57 E6        30.34F WCI  30
HOPKINSVILLE   NOT AVBL
BOWLING GREEN  CLOUDY    40  21  46 E7        30.33F
GLASGOW        NOT AVBL
$$

KYZ024-025-028>034-038-045-046-053-030300-
NORTH CENTRAL KENTUCKY

CITY           SKY/WX    TMP DP  RH WIND       PRES   REMARKS
LOUISVILLE/SDF CLOUDY    35  17  47 NE8       30.36F WCI  29
LOUISVILLE/LOU CLOUDY    34  16  47 NE7       30.37F WCI  28
FORT KNOX      MOCLDY    32  19  59 E8        30.32F WCI  25
$$

KYZ035>037-039>044-047>052-055>060-089>105-030300-
NORTHEAST KENTUCKY

CITY           SKY/WX    TMP DP  RH WIND       PRES   REMARKS
LEXINGTON      CLOUDY    30  19  63 NE13      30.37F WCI  20
COVINGTON      CLOUDY    30  16  56 E9        30.38F WCI  22
FRANKFORT      CLOUDY    32  17  54 E8        30.36F WCI  25
$$

KYZ054-064>069-076>088-106>120-030300-
SOUTHEAST KENTUCKY

CITY           SKY/WX    TMP DP  RH WIND       PRES   REMARKS
JACKSON        MOCLDY    34  19  54 VRB7      30.35F WCI  28
LONDON         CLEAR     38  16  40 NE5       30.33S WCI  34
SOMERSET       NOT AVBL
MIDDLESBORO    NOT AVBL
MONTICELLO     MOCLDY    37  27  68 NE7       30.36F WCI  31
$$



USA.gov is the U.S. government's official web portal to all federal, state and local government web resources and services.